Total_Precipitation_Accumulation
0.33 0.33 0.30 0.28 0.28 0.26 0.25 0.25 0.24 0.22 0.19 0.17 0.15 0.13 0.12 0.12 0.12 0.12 0.13 0.13 0.14 0.14 0.14 0.14 0.15 0.15 0.15 0.14 0.14 0.15 0.15 0.20 0.26 0.17 0.11 0.10 0.14 0.18 0.20 0.22 0.21 0.19 0.17
0.23 0.20 0.19 0.18 0.17 0.16 0.16 0.16 0.14 0.13 0.12 0.12 0.12 0.12 0.12 0.12 0.12 0.13 0.13 0.13 0.14 0.14 0.13 0.13 0.13 0.13 0.15 0.14 0.14 0.13 0.15 0.20 0.29 0.27 0.17 0.13 0.14 0.16 0.20 0.22 0.15 0.13 0.15
0.18 0.16 0.16 0.14 0.13 0.13 0.13 0.12 0.12 0.11 0.11 0.09 0.08 0.08 0.08 0.08 0.08 0.09 0.09 0.10 0.10 0.10 0.09 0.09 0.09 0.09 0.11 0.11 0.13 0.14 0.16 0.18 0.26 0.29 0.20 0.16 0.13 0.12 0.19 0.22 0.21 0.26 0.15
0.15 0.15 0.17 0.17 0.14 0.13 0.13 0.12 0.09 0.07 0.06 0.06 0.05 0.04 0.05 0.05 0.05 0.05 0.04 0.04 0.04 0.04 0.04 0.05 0.05 0.07 0.11 0.14 0.13 0.15 0.19 0.22 0.24 0.26 0.22 0.17 0.15 0.15 0.27 0.36 0.32 0.27 0.21
0.15 0.15 0.15 0.14 0.12 0.10 0.09 0.07 0.05 0.04 0.03 0.03 0.03 0.03 0.02 0.02 0.01 0.01 0.01 0.01 0.02 0.02 0.03 0.04 0.05 0.07 0.13 0.15 0.16 0.19 0.23 0.27 0.28 0.31 0.29 0.23 0.20 0.26 0.36 0.40 0.35 0.26 0.19
0.18 0.16 0.14 0.12 0.10 0.08 0.07 0.05 0.04 0.04 0.03 0.03 0.02 0.02 0.02 0.01 0.00 0.00 0.00 0.01 0.02 0.04 0.05 0.06 0.05 0.05 0.07 0.09 0.11 0.15 0.22 0.29 0.34 0.39 0.37 0.32 0.27 0.36 0.45 0.47 0.47 0.41 0.31
0.21 0.19 0.17 0.14 0.12 0.09 0.06 0.05 0.05 0.04 0.04 0.03 0.02 0.03 0.04 0.02 0.00 0.00 0.00 0.01 0.04 0.08 0.09 0.10 0.07 0.07 0.12 0.14 0.12 0.10 0.14 0.21 0.34 0.47 0.49 0.41 0.40 0.45 0.57 0.57 0.53 0.50 0.41
0.24 0.21 0.16 0.14 0.12 0.09 0.06 0.05 0.04 0.04 0.04 0.04 0.04 0.05 0.07 0.03 0.00 0.00 0.00 0.02 0.06 0.08 0.09 0.10 0.14 0.18 0.15 0.10 0.08 0.10 0.19 0.32 0.39 0.43 0.49 0.46 0.45 0.50 0.60 0.61 0.55 0.48 0.39
0.24 0.17 0.12 0.11 0.09 0.06 0.05 0.05 0.05 0.05 0.06 0.05 0.05 0.06 0.10 0.08 0.01 0.00 0.00 0.02 0.05 0.06 0.07 0.08 0.11 0.16 0.13 0.11 0.11 0.17 0.25 0.36 0.34 0.42 0.49 0.55 0.60 0.60 0.55 0.54 0.61 0.63 0.55
0.14 0.09 0.07 0.08 0.06 0.05 0.05 0.05 0.06 0.06 0.07 0.06 0.06 0.07 0.10 0.11 0.02 0.00 0.01 0.03 0.05 0.05 0.08 0.14 0.13 0.10 0.11 0.12 0.13 0.22 0.33 0.39 0.50 0.67 0.80 0.86 0.82 0.74 0.62 0.60 0.69 0.73 0.72
0.07 0.06 0.07 0.07 0.06 0.05 0.06 0.07 0.08 0.08 0.11 0.11 0.10 0.11 0.12 0.08 0.03 0.00 0.01 0.03 0.06 0.07 0.13 0.22 0.25 0.14 0.14 0.12 0.14 0.26 0.39 0.47 0.69 0.97 1.01 0.90 0.77 0.67 0.60 0.58 0.61 0.67 0.73
0.06 0.07 0.07 0.05 0.03 0.03 0.07 0.09 0.09 0.11 0.13 0.13 0.12 0.12 0.12 0.11 0.05 0.02 0.01 0.02 0.04 0.10 0.23 0.25 0.24 0.21 0.18 0.17 0.23 0.37 0.47 0.65 0.89 1.06 0.98 0.80 0.64 0.53 0.48 0.45 0.47 0.52 0.57
0.10 0.11 0.08 0.06 0.04 0.03 0.06 0.08 0.10 0.12 0.11 0.10 0.10 0.10 0.10 0.12 0.09 0.02 0.01 0.02 0.04 0.10 0.22 0.26 0.26 0.25 0.28 0.40 0.47 0.55 0.65 0.82 0.97 0.94 0.80 0.70 0.59 0.50 0.44 0.42 0.42 0.45 0.47
0.15 0.13 0.11 0.10 0.07 0.04 0.05 0.05 0.07 0.08 0.08 0.08 0.09 0.09 0.10 0.11 0.09 0.06 0.06 0.07 0.09 0.14 0.22 0.34 0.45 0.49 0.52 0.62 0.69 0.77 0.83 0.90 0.85 0.74 0.64 0.60 0.52 0.47 0.44 0.40 0.40 0.42 0.44
0.14 0.12 0.10 0.07 0.06 0.08 0.08 0.04 0.03 0.04 0.02 0.03 0.06 0.06 0.09 0.10 0.07 0.08 0.09 0.11 0.15 0.20 0.25 0.39 0.56 0.63 0.68 0.73 0.73 0.78 0.80 0.76 0.74 0.69 0.62 0.55 0.49 0.45 0.44 0.40 0.40 0.38 0.41
0.09 0.09 0.08 0.06 0.05 0.07 0.10 0.10 0.03 0.01 0.00 0.01 0.02 0.04 0.05 0.08 0.07 0.06 0.09 0.13 0.18 0.25 0.31 0.49 0.64 0.69 0.71 0.72 0.68 0.68 0.69 0.65 0.61 0.60 0.58 0.54 0.50 0.46 0.44 0.41 0.40 0.39 0.41
0.06 0.07 0.06 0.06 0.06 0.07 0.10 0.18 0.21 0.11 0.03 0.01 0.02 0.04 0.05 0.07 0.07 0.06 0.08 0.13 0.17 0.24 0.32 0.51 0.68 0.78 0.78 0.72 0.65 0.62 0.67 0.68 0.64 0.61 0.56 0.52 0.46 0.42 0.39 0.38 0.36 0.35 0.36
0.05 0.05 0.04 0.07 0.06 0.06 0.07 0.11 0.19 0.24 0.21 0.16 0.07 0.05 0.06 0.08 0.10 0.10 0.11 0.14 0.21 0.26 0.37 0.52 0.63 0.68 0.70 0.70 0.64 0.61 0.65 0.67 0.64 0.57 0.51 0.48 0.42 0.38 0.35 0.37 0.34 0.27 0.27
0.03 0.05 0.05 0.04 0.04 0.04 0.05 0.07 0.10 0.14 0.19 0.21 0.18 0.12 0.09 0.11 0.14 0.16 0.16 0.18 0.24 0.29 0.36 0.45 0.53 0.54 0.51 0.52 0.51 0.51 0.55 0.59 0.54 0.45 0.42 0.42 0.38 0.33 0.33 0.33 0.28 0.19 0.19
0.03 0.02 0.01 0.02 0.03 0.03 0.04 0.05 0.07 0.10 0.16 0.20 0.18 0.14 0.14 0.20 0.27 0.26 0.20 0.17 0.18 0.22 0.29 0.37 0.43 0.41 0.38 0.37 0.34 0.33 0.36 0.39 0.37 0.34 0.32 0.31 0.31 0.30 0.28 0.25 0.22 0.19 0.18
0.02 0.02 0.01 0.01 0.03 0.03 0.02 0.02 0.03 0.06 0.10 0.14 0.12 0.09 0.14 0.21 0.28 0.29 0.29 0.26 0.24 0.23 0.24 0.26 0.30 0.33 0.32 0.29 0.25 0.22 0.23 0.24 0.24 0.25 0.26 0.26 0.26 0.25 0.20 0.16 0.13 0.10 0.10
0.01 0.01 0.01 0.02 0.02 0.02 0.01 0.01 0.01 0.03 0.07 0.10 0.11 0.10 0.14 0.17 0.22 0.24 0.29 0.33 0.32 0.29 0.25 0.23 0.23 0.26 0.29 0.28 0.22 0.18 0.17 0.18 0.20 0.23 0.24 0.24 0.22 0.18 0.14 0.11 0.08 0.06 0.05
0.00 0.00 0.00 0.01 0.00 0.00 0.00 0.00 0.01 0.01 0.04 0.06 0.08 0.10 0.12 0.16 0.19 0.21 0.25 0.30 0.33 0.31 0.26 0.22 0.22 0.25 0.27 0.27 0.23 0.17 0.14 0.14 0.16 0.18 0.23 0.23 0.19 0.15 0.11 0.08 0.05 0.04 0.03
0.00 0.00 0.00 0.00 0.00 0.00 0.00 0.00 0.00 0.00 0.01 0.02 0.05 0.07 0.10 0.14 0.15 0.17 0.21 0.25 0.29 0.30 0.29 0.27 0.26 0.26 0.25 0.24 0.21 0.13 0.10 0.11 0.12 0.14 0.18 0.20 0.17 0.13 0.08 0.06 0.04 0.03 0.02
0.00 0.00 0.00 0.00 0.00 0.00 0.00 0.00 0.00 0.00 0.01 0.01 0.02 0.03 0.05 0.07 0.10 0.11 0.15 0.19 0.22 0.25 0.25 0.24 0.24 0.22 0.20 0.17 0.14 0.10 0.09 0.11 0.12 0.12 0.14 0.15 0.12 0.10 0.08 0.06 0.04 0.03 0.03
0.00 0.00 0.00 0.00 0.00 0.00 0.00 0.01 0.01 0.01 0.01 0.01 0.01 0.02 0.02 0.03 0.05 0.07 0.08 0.09 0.12 0.16 0.19 0.20 0.20 0.17 0.12 0.08 0.07 0.07 0.07 0.05 0.05 0.06 0.10 0.13 0.11 0.09 0.08 0.07 0.04 0.03 0.02